Simultaneous Nadir Overpasses (SNOs) Predictions

Prediction of SNOs between METOP-A and TERRA Satellite Orbit:

Table of predicted SNOs for the next 14.0 days since TLE Epoch: 10/29/2016
Index Date (METOP-A) Time (METOP-A) Lat,Lon (METOP-A) SZA (METOP-A ) Date (TERRA) Time (TERRA) Lat,Lon (TERRA) SZA (TERRA ) Distance(km) Time Diff (sec)
1 10/29/2016 08:31:25 81.30, 99.23 98.06 10/29/2016 08:32:11 81.30, 99.22 98.09 0.41 46
2 10/29/2016 09:22:05 -81.30, -93.23 81.90 10/29/2016 09:21:38 -81.30, -93.18 81.91 0.77 27
3 11/01/2016 04:05:47 81.30, 165.71 98.98 11/01/2016 04:06:26 81.30, 165.63 98.99 1.48 39
4 11/01/2016 04:56:27 -81.30, -26.70 80.98 11/01/2016 04:55:53 -81.30, -26.75 81.00 0.96 34
5 11/03/2016 23:40:09 81.29,-128.22 99.82 11/03/2016 23:40:40 81.29,-128.04 99.85 3.07 31
6 11/04/2016 00:30:49 -81.30, 39.41 80.14 11/04/2016 00:30:07 -81.29, 39.60 80.14 3.31 42
7 11/06/2016 19:14:30 81.30, -61.40 100.71 11/06/2016 19:14:54 81.30, -61.40 100.72 0.57 24
8 11/06/2016 20:05:10 -81.30, 106.27 79.25 11/06/2016 20:04:21 -81.30, 106.26 79.27 0.28 49
9 11/09/2016 14:48:53 81.29, 4.61 101.46 11/09/2016 14:49:09 81.29, 4.79 101.48 3.10 16




NCC Satellite Simultaneous Nadir Overpasses (SNOs) Prediction Service
